This is the latest recevied weather packets stored in our database for station/object APPOWX. If no packets are shown the sender has not sent any weather packets the latest 10 day(s).
| Time | Temp. | Humidity | Pressure | Rain* | Wind** | Luminosity | Snow |
|---|---|---|---|---|---|---|---|
| 1777320991 | 18.89° C | 48% | 1024.7 hPa | 0 mm | - | - | - |
| 1777320930 | 18.89° C | 51% | 1024.9 hPa | 0 mm | - | - | - |
| 1777320870 | 18.89° C | 50% | 1024.7 hPa | 0 mm | - | - | - |
| 1777320811 | 18.89° C | 50% | 1024.8 hPa | 0 mm | - | - | - |
| 1777320750 | 18.33° C | 48% | 1024.8 hPa | 0 mm | - | - | - |
| 1777320689 | 18.33° C | 50% | 1024.6 hPa | 0 mm | - | - | - |
| 1777320630 | 18.89° C | 49% | 1024.8 hPa | 0 mm | - | - | - |
| 1777320570 | 18.89° C | 47% | 1024.6 hPa | 0 mm | - | - | - |
| 1777320509 | 18.89° C | 50% | 1024.8 hPa | 0 mm | - | - | - |
| 1777320449 | 18.33° C | 52% | 1024.7 hPa | 0 mm | - | - | - |
| 1777320388 | 17.78° C | 52% | 1025 hPa | 0 mm | - | - | - |
| 1777320328 | 17.78° C | 50% | 1024.9 hPa | 0 mm | - | - | - |
| 1777320267 | 18.33° C | 50% | 1024.9 hPa | 0 mm | - | - | - |
| 1777320208 | 18.33° C | 51% | 1024.9 hPa | 0 mm | - | - | - |
| 1777320148 | 18.33° C | 51% | 1024.8 hPa | 0 mm | - | - | - |
| 1777320088 | 18.33° C | 49% | 1024.9 hPa | 0 mm | - | - | - |
| 1777320027 | 18.33° C | 48% | 1025 hPa | 0 mm | - | - | - |
| 1777319967 | 18.33° C | 52% | 1025 hPa | 0 mm | - | - | - |
| 1777319907 | 18.33° C | 49% | 1025.2 hPa | 0 mm | - | - | - |
| 1777319846 | 18.33° C | 47% | 1025.1 hPa | 0 mm | - | - | - |
| 1777319786 | 18.33° C | 47% | 1025 hPa | 0 mm | - | - | - |
| 1777319726 | 18.33° C | 48% | 1025.1 hPa | 0 mm | - | - | - |
| 1777319667 | 18.33° C | 47% | 1025 hPa | 0 mm | - | - | - |
| 1777319606 | 18.33° C | 50% | 1025.1 hPa | 0 mm | - | - | - |
| 1777319546 | 18.33° C | 48% | 1025.1 hPa | 0 mm | - | - | - |
* Rain latest hour (hover to see other rain measurements)
** Current wind speed in m/s (hover to see current wind gust speed)